Vorticity
-2 5 2 -1 -1 5 2 -1 2 4 5 9 9 5 7 7 7 9 7 9 12 16 10 7 7 8 7 13 14 10 11 11 5 5 10 8 8 11 7 3 5 6 6 7 6 3 5
19 11 6 14 12 5 9 10 12 11 13 14 9 10 9 8 7 5 6 11 10 12 15 20 18 18 19 17 12 0 8 8 9 8 4 12 10 4 5 7 4 2 4 5 6 7 7
8 2 5 11 9 10 13 11 11 7 9 9 8 6 8 6 -2 13 6 9 3 16 6 2 18 15 14 11 9 -0 6 -2 2 7 5 4 12 13 8 3 9 3 1 4 6 4 6
43 29 -0 5 10 10 4 6 10 6 11 4 5 7 7 7 -8 -1 8 7 0 5 0 3 11 14 14 16 8 1 -6 -4 -1 5 8 9 3 3 8 2 0 3 4 4 3 3 9
-26 -15 -7 1 3 1 2 1 8 0 14 8 5 4 4 4 7 5 8 6 4 0 4 3 6 15 4 5 2 -0 -1 0 0 2 7 8 6 5 4 8 6 7 12 10 25 8 2
8 -7 -9 2 3 6 2 1 7 6 -9 -7 1 1 1 3 -2 3 8 7 7 4 -0 2 5 8 6 4 -3 0 5 9 6 -2 3 1 4 8 7 7 2 7 17 5 1 3 2
8 5 3 2 -0 5 3 6 8 6 3 4 3 7 3 6 4 3 9 2 6 9 6 1 5 10 6 3 2 10 4 4 6 3 5 1 -0 9 7 3 4 8 10 6 8 7 4
-2 -3 -0 2 4 2 4 5 4 4 8 4 4 4 4 5 5 6 6 4 3 12 6 4 6 3 11 6 -4 3 5 1 8 5 2 -2 3 2 5 12 11 8 7 8 7 7 6
21 5 5 4 4 5 3 2 3 2 1 4 3 4 2 -0 2 6 6 7 -1 6 13 -0 -1 8 -0 6 9 1 6 3 4 4 5 0 11 5 5 8 5 3 6 5 6 10 8
7 2 5 4 2 2 3 3 1 2 0 1 2 4 1 3 8 6 11 3 1 8 13 -3 6 -6 -3 4 -1 1 7 5 5 9 9 6 13 4 7 6 4 3 6 12 10 5 4
-1 -0 -1 11 4 4 4 4 3 3 10 13 12 9 16 6 -0 9 3 2 3 2 8 10 9 7 4 5 9 8 13 24 20 12 8 15 6 10 7 3 5 11 6 7 3 3 4
-5 -3 6 1 -4 9 11 5 2 -1 1 -1 2 1 6 12 18 10 3 13 11 2 -6 4 4 -0 1 10 9 7 36 14 13 19 15 11 6 4 5 8 7 8 6 3 4 6 8
16 21 12 6 4 7 1 3 5 5 -3 7 7 4 6 1 -3 6 -7 11 8 -2 1 8 4 -12 2 7 18 19 7 -9 16 11 15 16 10 8 9 11 10 6 5 7 6 21 12
15 17 20 22 20 13 19 18 20 23 12 18 9 11 17 14 16 21 18 20 -0 3 5 15 3 7 1 15 -0 -7 1 14 15 9 14 11 21 9 1 8 1 10 6 8 14 1 -10
6 5 8 13 17 20 19 20 16 14 22 16 18 24 10 11 13 11 9 6 13 20 21 19 18 12 27 17 25 22 18 9 8 1 19 18 7 1 8 15 11 13 12 6 7 8 10
19 15 11 9 6 5 7 5 12 14 14 11 10 13 11 15 8 11 9 1 10 12 18 11 15 19 21 19 11 10 11 15 21 7 16 14 20 14 12 10 8 7 9 12 11 10 12
10 11 13 15 15 15 17 21 19 12 10 12 12 13 13 18 15 11 -8 3 19 15 9 8 15 12 14 6 9 9 10 9 10 7 24 24 10 5 6 4 10 14 7 7 13 13 12
14 14 11 12 12 10 7 8 9 12 14 14 14 16 10 5 17 10 4 20 21 15 6 7 5 13 12 12 8 8 5 6 1 2 17 8 8 -2 9 10 10 7 12 10 3 11 5
18 14 18 14 12 12 13 12 10 12 9 11 8 9 12 14 5 4 22 17 14 10 23 16 7 9 7 8 12 13 6 6 14 9 12 8 11 6 7 11 11 6 8 21 15 9 17
14 14 15 13 15 15 14 14 12 12 12 11 12 8 7 6 10 7 2 15 14 14 -2 10 21 5 -1 4 14 4 2 9 14 12 7 11 7 11 11 5 -13 -3 -16 -16 5 -1 15
11 11 12 14 11 14 14 13 13 13 13 12 9 11 8 5 7 10 8 11 19 14 12 5 -2 5 5 2 9 14 20 7 -2 5 14 13 13 7 2 8 7 8 9 6 7 7 1
14 14 13 11 11 18 14 12 13 13 10 8 29 11 15 11 10 6 3 12 7 29 19 5 -1 17 26 -4 4 19 16 16 7 19 11 10 5 10 6 11 10 7 8 11 8 8 12
11 14 16 18 16 13 13 12 13 13 16 3 -1 12 18 10 21 15 9 7 1 25 -2 22 -6 -13 1 -5 15 9 2 -2 -3 3 9 9 10 7 14 11 6 3 16 11 18 14 10
9 12 12 14 19 18 16 14 12 9 14 18 0 -10 20 19 14 11 8 16 20 51 15 12 44 25 22 20 31 18 11 20 23 12 6 6 8 11 9 7 4 16 12 20 12 12 15
36 24 14 14 20 15 20 15 9 5 34 3 -19 21 -6 24 17 10 7 12 3 6 -11 30 4 -21 -2 18 4 -1 12 4 9 8 12 16 11 4 7 9 11 14 9 12 9 14 8
33 43 30 20 18 19 16 16 15 22 -35 22 11 1 -1 7 21 23 12 1 12 15 27 15 4 12 28 31 -0 -1 9 17 1 17 16 8 8 8 10 9 11 12 25 15 13 8 1
16 22 36 32 17 21 15 16 23 19 1 -17 15 7 6 9 18 21 24 9 9 1 -6 3 8 -8 -6 -8 3 11 10 19 19 10 8 17 24 11 13 9 7 9 10 6 10 12 9
20 17 11 48 6 18 15 17 28 -2 -2 -1 -6 1 8 10 12 20 14 7 18 9 20 22 10 28 18 8 22 16 13 15 6 10 -5 4 15 9 9 8 7 13 12 12 7 4 3
18 14 19 45 16 15 24 -16 0 15 19 12 7 4 9 11 7 17 8 26 11 -5 -14 26 22 7 7 9 1 6 9 14 24 8 21 7 -2 8 15 11 14 8 1 7 10 5 9
Height
5784 5786 5789 5791 5793 5793 5795 5796 5797 5797 5797 5801 5800 5800 5801 5804 5802 5802 5801 5800 5800 5803 5803 5801 5802 5801 5800 5803 5805 5805 5805 5804 5803 5802 5805 5806 5808 5807 5806 5804 5803 5803 5804 5804 5805 5805 5805
5774 5776 5778 5781 5782 5783 5785 5786 5788 5787 5788 5791 5791 5792 5793 5795 5794 5796 5795 5794 5793 5795 5795 5793 5793 5792 5793 5797 5800 5801 5801 5800 5801 5800 5800 5801 5803 5804 5804 5803 5799 5799 5799 5800 5799 5799 5798
5764 5766 5768 5771 5771 5773 5774 5777 5778 5778 5780 5782 5782 5783 5786 5788 5788 5787 5788 5788 5788 5789 5789 5789 5786 5785 5787 5790 5793 5797 5797 5796 5796 5797 5797 5796 5796 5796 5797 5798 5799 5795 5793 5793 5793 5791 5790
5752 5755 5759 5761 5762 5763 5765 5768 5770 5770 5772 5773 5773 5776 5778 5779 5781 5780 5780 5781 5783 5783 5785 5783 5782 5781 5784 5784 5786 5789 5791 5792 5791 5790 5791 5792 5791 5791 5790 5790 5791 5791 5788 5785 5784 5780 5781
5745 5743 5747 5750 5752 5755 5756 5758 5761 5762 5762 5763 5765 5767 5770 5770 5772 5771 5772 5773 5775 5777 5778 5777 5780 5778 5778 5781 5781 5785 5785 5784 5785 5785 5785 5784 5786 5785 5785 5783 5782 5783 5781 5779 5777 5773 5772
5731 5732 5736 5739 5741 5743 5746 5749 5750 5750 5752 5754 5755 5757 5760 5760 5763 5765 5764 5765 5766 5769 5770 5772 5772 5775 5771 5776 5776 5777 5777 5778 5777 5777 5778 5778 5778 5778 5777 5775 5774 5776 5775 5772 5776 5771 5764
5718 5720 5723 5725 5729 5732 5733 5738 5739 5740 5740 5744 5744 5745 5751 5751 5752 5753 5756 5757 5758 5760 5762 5764 5764 5768 5764 5766 5767 5769 5770 5771 5770 5770 5770 5769 5770 5772 5767 5767 5767 5767 5768 5767 5766 5767 5762
5701 5704 5708 5711 5714 5718 5720 5723 5726 5729 5730 5732 5734 5736 5738 5740 5741 5743 5745 5746 5748 5750 5753 5757 5757 5757 5760 5756 5757 5762 5760 5764 5763 5763 5761 5762 5761 5761 5759 5762 5759 5759 5757 5758 5757 5757 5752
5684 5687 5691 5694 5699 5703 5706 5709 5713 5716 5718 5720 5722 5724 5727 5730 5732 5732 5734 5735 5736 5739 5739 5749 5751 5751 5750 5748 5750 5754 5751 5754 5754 5752 5754 5753 5753 5750 5749 5752 5750 5750 5750 5746 5747 5747 5744
5667 5670 5674 5678 5682 5687 5691 5695 5698 5701 5705 5707 5710 5711 5714 5717 5722 5722 5723 5723 5725 5727 5729 5733 5737 5739 5744 5743 5743 5745 5744 5743 5745 5744 5743 5743 5745 5742 5741 5742 5742 5737 5739 5737 5738 5737 5735
5648 5652 5657 5660 5665 5670 5674 5678 5681 5685 5689 5692 5696 5698 5702 5703 5708 5709 5711 5711 5714 5716 5718 5720 5719 5727 5732 5733 5733 5736 5734 5731 5733 5734 5732 5736 5732 5732 5733 5734 5728 5733 5728 5730 5728 5727 5725
5627 5631 5634 5639 5645 5650 5656 5660 5664 5668 5672 5674 5679 5682 5686 5690 5694 5694 5695 5697 5701 5707 5704 5708 5710 5713 5716 5718 5719 5720 5724 5720 5722 5721 5720 5724 5721 5722 5724 5720 5722 5721 5721 5720 5718 5717 5716
5606 5612 5616 5619 5625 5629 5635 5641 5646 5650 5654 5659 5662 5666 5670 5674 5679 5677 5679 5682 5688 5693 5697 5693 5698 5702 5704 5705 5707 5709 5713 5713 5713 5711 5711 5711 5710 5712 5712 5712 5711 5712 5711 5710 5711 5709 5708
5587 5591 5597 5601 5607 5612 5617 5622 5627 5632 5637 5642 5644 5651 5655 5660 5660 5661 5662 5664 5673 5686 5685 5683 5686 5689 5693 5694 5695 5698 5699 5702 5701 5702 5700 5700 5700 5700 5700 5702 5703 5701 5701 5700 5700 5699 5702
5567 5573 5577 5583 5587 5593 5599 5604 5610 5615 5619 5623 5625 5632 5640 5646 5645 5647 5646 5646 5666 5673 5671 5671 5675 5676 5682 5680 5685 5685 5687 5691 5690 5692 5691 5689 5690 5688 5690 5693 5696 5692 5692 5691 5688 5690 5688
5546 5552 5558 5563 5569 5575 5582 5589 5593 5598 5603 5606 5609 5614 5625 5628 5628 5628 5627 5639 5654 5658 5658 5659 5663 5665 5670 5669 5672 5673 5674 5679 5679 5681 5678 5676 5679 5680 5681 5683 5684 5684 5684 5682 5681 5680 5677
5526 5532 5538 5543 5550 5557 5564 5571 5577 5583 5587 5590 5592 5598 5612 5610 5610 5608 5611 5631 5639 5644 5643 5649 5653 5654 5657 5658 5658 5660 5664 5666 5668 5668 5668 5668 5670 5673 5672 5673 5675 5674 5674 5674 5672 5672 5668
5506 5512 5518 5524 5531 5540 5547 5553 5560 5567 5571 5574 5576 5584 5595 5597 5593 5596 5605 5624 5626 5631 5630 5636 5638 5642 5643 5647 5647 5649 5652 5652 5658 5657 5660 5658 5658 5661 5663 5664 5664 5665 5666 5663 5661 5663 5659
5486 5492 5499 5505 5512 5520 5528 5535 5543 5550 5555 5559 5561 5568 5576 5579 5579 5592 5601 5607 5611 5614 5619 5622 5625 5630 5632 5634 5637 5639 5640 5639 5646 5647 5650 5647 5650 5652 5656 5658 5655 5653 5654 5654 5652 5652 5653
5465 5473 5480 5487 5494 5502 5511 5518 5525 5534 5540 5543 5544 5548 5559 5563 5576 5580 5588 5591 5595 5603 5607 5610 5614 5616 5621 5623 5625 5627 5628 5631 5635 5636 5639 5639 5642 5642 5647 5649 5644 5645 5648 5646 5645 5641 5644
5447 5453 5461 5469 5477 5485 5494 5502 5510 5519 5527 5526 5527 5535 5547 5551 5564 5569 5574 5580 5585 5590 5595 5600 5601 5604 5609 5613 5615 5616 5619 5621 5627 5627 5629 5630 5631 5634 5635 5636 5637 5637 5637 5635 5636 5637 5632
5426 5433 5441 5450 5458 5467 5478 5485 5496 5505 5514 5513 5515 5529 5533 5541 5551 5554 5559 5567 5573 5579 5583 5587 5589 5595 5598 5600 5605 5608 5610 5610 5615 5617 5619 5620 5621 5623 5625 5626 5626 5627 5627 5628 5627 5626 5624
5405 5411 5420 5428 5439 5449 5460 5470 5480 5490 5498 5502 5508 5519 5519 5530 5536 5540 5550 5560 5565 5570 5573 5578 5581 5584 5583 5592 5592 5597 5599 5600 5602 5607 5609 5612 5612 5613 5616 5616 5616 5617 5619 5618 5619 5617 5616
5382 5390 5398 5408 5419 5430 5441 5452 5464 5476 5485 5492 5503 5506 5508 5519 5525 5532 5539 5547 5555 5558 5560 5566 5569 5573 5577 5577 5581 5584 5589 5594 5595 5598 5600 5602 5604 5605 5606 5606 5606 5611 5608 5610 5608 5607 5606
5356 5366 5376 5388 5400 5412 5424 5436 5448 5461 5472 5481 5492 5497 5502 5509 5515 5522 5529 5537 5544 5547 5550 5555 5560 5563 5565 5570 5574 5577 5580 5583 5586 5590 5593 5594 5595 5596 5596 5597 5600 5600 5601 5599 5599 5600 5598
5338 5345 5355 5368 5382 5395 5407 5421 5436 5450 5462 5474 5482 5489 5494 5499 5506 5513 5518 5526 5532 5540 5540 5543 5547 5553 5558 5561 5563 5568 5572 5577 5579 5581 5584 5585 5587 5587 5588 5590 5590 5594 5593 5589 5592 5591 5589
5328 5333 5340 5351 5365 5379 5394 5409 5425 5440 5453 5463 5473 5480 5486 5492 5495 5503 5511 5517 5524 5531 5531 5536 5540 5544 5547 5550 5556 5561 5564 5568 5570 5573 5575 5576 5576 5578 5580 5581 5583 5586 5586 5584 5586 5586 5582
5319 5324 5330 5338 5353 5368 5383 5399 5415 5431 5443 5454 5465 5472 5479 5484 5489 5495 5501 5507 5516 5520 5524 5529 5533 5536 5540 5545 5549 5552 5555 5559 5562 5565 5569 5569 5570 5571 5574 5575 5576 5578 5576 5578 5577 5575 5573
5311 5316 5322 5329 5344 5360 5375 5392 5409 5425 5435 5446 5456 5464 5471 5479 5487 5490 5496 5501 5507 5510 5516 5520 5524 5526 5531 5536 5541 5544 5547 5550 5554 5555 5560 5562 5564 5566 5567 5569 5567 5569 5570 5568 5567 5567 5567